OBJECT BS, 43822

Orbit data source: Space-Track

You're viewing an Uncataloged Satellite

Recently launched and/or uncataloged satellites may have evolving metadata. Metadata may include but not limited to: Owner, Maufacturer, Bus, Motor, and Mission.

OBJECT BS, 43822 is a satellite in SSO that was launched on Mon, 03 Dec 2018 UTC via an FALCON 9 launch vehicle from the Air Force Western Test Range (AFWTR). Unknown objects in Earth's orbit typically refer to objects detected orbiting the Earth but have not yet been identified or cataloged. These objects could be anything from previously untracked satellites, spent rocket stages, debris from satellite collisions, or even natural meteoroids temporarily captured by Earth's gravity.

Loading next visibility...
Identifier
43822, 2018-099BS
Orbit
SSO
Last TLE update
1 day ago
Origin
Flag of TBDKRAU (TBD)
Manufacturer
Korea AeU
Mission
Amateur Technology
Bus & Motor
CUBESAT 2U, Unknown motor
Mass
2 kg wet, 2 kg dry
Launch date (UTC)
2018-12-03 (7 years ago)
Launch vehicle
FALCON 9
Launch site
Air Force Western Test Range (AFWTR)
Object type
Unknown
Shape & HBR
Box, 0.5 m
Radar Cross Section
0.025 m², Small (<0.1 m²)

Expand to show TLE details & history

TLE from 1 day ago
0 OBJECT BS
1 43822U 18099BS  25181.08900307  .00003433  00000-0  21414-3 0  9998
2 43822  97.4836 234.1784 0010060 122.2284 237.9922 15.10141179353000
Epoch: 2025-06-30T02:08Z
TLE epoch observation values (Epoch: 2025-06-30T02:08:09.865Z)
Latitude
-0.00001°
Longitude
-76.26652°
Altitude
542.536 km
Speed
7.589 km/s
True Right ascension
15h 36m 42s
True Declination
0° 00' 00"
Sunlit
Object was in full shadow at epoch
Visualization orbit readout
Latitude
-8.95574°
Longitude
-74.11748°
Altitude
544.667 km
Speed
7.587 km/s
Apparent Right ascension
18h 42m 26s
Apparent Declination
-53° 31' 20"
Sunlit
Object is in full shadow
Visualization observer readout
Local Sidereal Time
13:34:04
Azimuth
140.458° SSE
Elevation
-24.463°
Doppler factor
1
Orbital elements
Apogee altitude
539.704 km
Perigee altitude
525.799 km
Semi-major axis
6,910.888 km
Eccentricity
0.00101
Inclination
97.4836°
RAAN
234.1784°
Arg. of periapsis
122.2284°
True anomaly
Unknown
Mean anomaly
237.9922°
Eccentric anomaly
Unknown
Mean motion
3.77783 °/min
Orbital period
95.29 mins
BSTAR
0.00021414
Loading maneuver chart data...
Loading SW <> Apogee altitude chart data...
Loading historical data...
Loading historical data...
Loading historical data...
Loading historical data...
Loading historical data...
Loading historical data...
Loading historical data...

OBJECT BS Visibility forecast

Observer location: undefined°, undefined°

Span
Click to sort rows by Start time (UTC) header in descending order
Start Az.
Max El. time (UTC)
Max El. Az.
Max El.
End time (UTC)
End Az.
7 mins2025-07-01 03:42:00.871Z173.823° S2025-07-01 03:45:00.871Z210.963° SW42.383°2025-07-01 03:49:00.871Z343.71° N
5 mins2025-07-01 16:53:00.871Z340.217° N2025-07-01 16:55:00.871Z274.884° WNW32.692°2025-07-01 16:58:00.871Z218.286° SW
|